Location: Observatoire POLARIS
(46.3550°N, 73.3861°W)
Time: 09:59:56
(UTC-05:00)

Envisat - Visible Passes

Search period start: 22 February 2018 00:00
Search period end: 04 March 2018 00:00
Orbit: 764 x 766 km, 98.2° (Epoch: 22 February)

Date Brightness Start Highest point End Pass type
(mag) Time Alt. Az. Time Alt. Az. Time Alt. Az.
22 Feb 3.8 18:19:49 10° SE 18:24:11 30° ENE 18:28:35 10° N visible
22 Feb 4.3 19:58:22 10° SSW 20:03:06 39° W 20:07:51 10° NNW visible
23 Feb 3.0 19:21:10 10° SSE 19:26:15 82° WSW 19:31:22 10° NNW visible
23 Feb 6.0 21:04:55 10° W 21:06:05 11° W 21:07:13 10° WNW visible
24 Feb 3.2 18:44:44 10° SE 18:49:37 49° ENE 18:54:30 10° N visible
24 Feb 5.2 20:24:52 10° SW 20:28:53 23° W 20:32:55 10° NW visible
25 Feb 4.0 18:09:05 10° ESE 18:13:09 25° ENE 18:17:14 10° N visible
25 Feb 3.9 19:47:00 10° S 19:51:54 48° W 19:56:50 10° NNW visible
26 Feb 2.9 19:10:03 10° SSE 19:15:07 82° ENE 19:20:14 10° NNW visible
26 Feb 5.8 20:52:14 10° WSW 20:54:46 14° W 20:57:19 10° WNW visible
27 Feb 3.4 18:33:50 10° SE 18:38:32 40° ENE 18:43:15 10° N visible
27 Feb 4.8 20:13:17 10° SSW 20:17:38 29° W 20:22:02 10° NW visible
28 Feb 3.5 19:35:43 10° S 19:40:43 60° W 19:45:46 10° NNW visible
01 Mar 2.9 18:58:59 10° SSE 19:03:59 66° ENE 19:09:03 10° N visible
01 Mar 5.6 20:40:12 10° SW 20:43:29 17° W 20:46:49 10° NW visible
02 Mar 3.7 18:22:59 10° SE 18:27:28 33° ENE 18:31:58 10° N visible
02 Mar 4.5 20:01:47 10° SSW 20:06:25 35° W 20:11:05 10° NNW visible
03 Mar 3.1 19:24:29 10° S 19:29:33 75° WSW 19:34:40 10° NNW visible
